Theta_e
276 275 275 275 276 275 276 276 277 276 276 276 275 275 274 274 271 270 271 272 273 275 276 276 276 277 277 277 278 277 277 279 280 278 278 278 278 280 283 285 287 287 288 288 288 289 289 290 291 291 292 292 293 294 294 294 295 295 296 297 298 300 301 302 303 304 305 306 308 309 309 308 309 310
275 275 275 275 275 275 275 275 275 276 275 275 275 275 275 274 272 272 270 270 274 274 276 277 276 276 276 277 277 277 276 279 278 277 277 277 277 281 282 283 284 285 286 286 288 289 289 289 289 290 290 291 292 293 293 293 294 295 296 298 299 300 301 301 302 302 303 305 306 307 308 309 309 309
275 274 274 274 274 274 275 275 275 275 275 275 274 274 275 275 274 273 272 269 273 274 274 275 276 275 276 276 276 276 276 277 278 276 276 276 279 280 279 281 282 283 284 285 286 287 287 288 288 289 289 290 291 292 292 292 293 294 295 297 298 298 299 300 300 301 302 304 305 306 307 308 309 310
275 274 274 274 274 274 274 274 274 274 275 275 274 274 274 273 273 273 272 270 270 275 275 275 276 276 275 275 274 274 275 276 278 276 275 276 279 277 276 279 281 282 283 284 285 286 287 287 288 288 288 289 290 291 291 292 292 293 294 296 297 298 297 298 299 300 300 301 303 305 305 306 307 308
274 274 273 273 273 274 273 273 273 274 273 273 274 274 273 272 272 272 271 269 270 272 274 274 274 274 274 273 274 273 274 274 275 277 275 275 275 275 275 275 279 280 282 283 284 285 286 287 287 288 288 289 289 290 290 291 292 293 294 295 296 297 297 298 299 299 299 301 301 303 304 305 305 306
274 273 273 273 273 273 272 272 272 272 272 272 272 272 272 271 271 272 271 270 269 269 272 272 273 273 274 272 273 273 273 273 274 274 274 275 275 274 275 275 275 279 281 282 284 285 286 287 288 288 288 288 289 290 291 291 291 292 293 293 293 294 295 297 297 298 298 300 301 302 303 304 305 305
273 272 272 272 272 272 271 272 272 272 272 272 272 271 272 271 271 271 271 270 268 268 269 271 271 272 273 272 272 273 274 274 274 273 274 274 275 276 275 275 275 279 282 283 285 285 286 286 287 287 288 288 288 289 290 290 290 290 291 292 293 293 293 295 296 296 297 298 300 301 301 303 304 304
272 271 271 271 271 271 271 271 271 271 271 271 271 271 271 271 270 271 271 271 269 269 268 270 270 272 272 272 273 274 274 274 274 274 274 275 274 274 275 275 275 278 282 283 284 284 285 285 286 286 287 287 288 288 289 289 289 290 290 290 291 292 293 293 294 295 295 297 298 300 302 302 303 303
271 271 271 271 270 270 270 270 270 271 270 271 271 270 270 270 270 271 271 270 271 269 269 270 271 272 272 273 273 274 273 274 274 274 274 274 274 275 275 276 276 279 281 282 282 282 283 284 285 286 286 286 287 287 288 288 289 289 289 289 290 291 292 292 293 294 295 295 295 297 299 301 302 303
271 270 270 270 270 270 270 270 270 271 270 270 270 270 270 270 270 270 271 271 271 270 270 270 270 272 272 272 273 274 274 273 273 273 274 275 275 274 274 275 276 277 277 276 277 279 280 281 283 284 285 286 287 287 287 288 288 288 288 288 289 290 292 292 293 293 294 294 294 296 297 299 301 301
270 270 270 270 270 270 270 270 270 270 270 270 270 270 270 271 271 271 271 272 271 271 270 271 271 271 273 273 272 274 275 274 274 272 273 273 275 275 275 275 276 276 276 279 281 281 281 282 281 283 285 286 286 287 287 288 288 287 287 288 289 289 289 290 290 291 293 294 294 294 295 296 299 301
270 270 271 271 271 271 271 271 271 271 270 271 270 271 272 272 272 271 272 272 271 271 271 271 271 272 272 273 274 275 274 273 273 275 274 272 273 274 276 276 275 276 277 276 276 279 280 280 281 283 283 284 285 285 285 285 285 285 286 287 288 287 288 289 290 291 292 292 294 294 295 295 296 299
270 271 271 271 271 272 273 274 274 274 273 272 271 272 273 273 272 272 272 272 272 271 271 271 272 272 272 273 273 273 273 272 272 274 275 274 275 275 275 276 277 277 276 276 276 276 277 276 276 277 277 278 280 281 282 283 284 285 286 286 286 286 287 289 290 291 291 291 292 294 295 295 295 296
271 271 271 272 274 275 275 276 276 277 278 278 276 275 275 274 274 273 273 273 273 272 271 271 272 272 272 273 273 273 274 275 275 275 275 273 274 275 274 274 275 277 276 275 275 276 277 277 276 277 276 278 280 279 280 280 281 283 284 286 287 288 288 289 290 290 291 292 292 293 294 295 296 296
271 272 273 273 275 276 276 276 277 278 278 278 279 279 279 278 276 274 274 274 274 273 272 273 273 272 272 273 274 274 275 275 275 275 275 274 274 272 271 270 274 277 276 275 274 274 277 277 275 276 277 278 278 279 279 283 283 284 286 287 287 288 288 289 290 290 291 292 293 293 294 295 295 296
273 273 274 274 274 275 274 274 274 275 277 277 278 278 278 279 279 279 276 274 273 274 273 273 273 273 273 274 275 275 275 274 274 274 274 273 273 272 272 272 271 275 277 275 274 273 276 277 276 275 276 277 278 278 281 284 285 286 286 287 287 288 288 289 289 290 291 291 292 293 293 294 295 296
273 274 274 274 274 274 276 275 274 274 274 276 277 277 277 278 278 279 279 280 277 276 274 274 274 274 274 273 273 274 274 275 273 274 273 274 274 274 273 273 273 275 277 275 274 273 275 276 275 275 276 277 277 278 282 284 284 285 286 286 287 287 288 289 289 290 291 291 292 293 294 294 295 296
274 274 274 273 273 273 273 273 273 272 272 272 273 273 274 274 275 277 278 278 279 278 276 274 273 274 274 273 274 275 277 275 274 274 273 274 274 274 273 275 275 277 278 275 274 272 274 276 276 275 276 277 277 277 280 283 285 285 286 287 287 288 288 289 289 290 290 291 292 293 294 295 295 296
274 275 274 274 273 272 272 273 273 272 272 273 273 273 274 275 275 276 276 276 276 275 275 274 274 275 276 276 276 277 277 276 276 276 275 275 275 276 276 276 276 276 278 277 275 271 274 277 275 275 276 277 277 277 281 284 285 285 286 286 287 288 288 289 289 290 291 292 293 294 294 295 296 296
275 274 273 272 272 271 271 274 276 276 275 274 273 273 274 274 275 275 277 278 279 278 277 277 276 276 277 279 277 278 278 277 277 277 276 275 273 272 270 269 271 272 274 276 275 273 273 276 275 275 276 277 276 278 278 282 284 285 286 286 287 288 288 289 289 290 291 292 293 293 294 294 295 295
274 273 272 271 271 271 271 274 276 277 277 274 273 273 273 273 273 273 276 278 279 279 279 279 279 280 280 281 281 280 280 277 276 273 270 269 269 268 267 268 269 269 272 274 275 274 272 275 275 275 276 276 277 277 278 278 282 284 285 286 287 287 288 289 289 290 290 290 291 292 294 294 294 294
272 273 274 273 272 272 273 276 277 277 276 274 274 273 273 272 273 273 274 274 275 277 277 278 278 278 278 278 278 277 276 276 275 270 267 269 269 267 267 266 268 269 271 273 276 273 272 274 275 274 275 276 277 277 278 279 280 283 284 285 286 287 288 289 289 290 291 291 292 293 294 294 294 294
272 272 274 275 275 274 275 276 277 277 276 274 274 273 273 272 271 272 273 272 271 271 272 273 272 271 271 270 268 269 273 274 274 271 269 269 268 267 267 267 268 268 270 274 277 273 273 274 276 276 274 273 276 279 278 279 279 280 280 281 282 286 287 288 289 290 291 292 293 293 294 293 293 293
271 272 272 274 276 277 277 277 277 277 277 275 275 274 272 271 271 272 271 271 272 273 271 269 268 267 267 267 268 268 268 269 270 270 270 270 269 268 268 268 268 267 269 274 278 274 275 276 275 277 276 273 271 276 279 279 279 280 280 280 281 284 286 286 287 289 290 291 292 292 293 293 294 292
270 272 273 273 274 275 275 275 276 276 277 277 275 274 272 272 272 274 272 273 272 268 266 265 265 265 265 266 267 267 268 268 269 270 271 271 271 269 268 267 267 267 269 272 275 272 270 274 274 276 276 276 276 275 277 278 278 279 279 279 279 281 282 283 284 285 288 290 291 292 293 294 294 293
271 272 272 272 273 274 274 274 275 276 277 277 274 273 275 276 276 273 273 268 266 264 263 262 262 263 263 264 265 266 267 268 269 270 270 271 271 271 270 269 267 266 267 271 275 272 270 270 272 273 274 274 274 276 275 276 277 279 280 280 280 281 282 283 284 285 286 287 287 289 290 292 293 293
272 272 272 272 273 273 274 274 276 276 276 275 273 274 275 275 275 273 266 264 262 261 261 262 261 262 263 263 264 265 266 268 269 269 270 270 270 270 271 271 271 270 270 271 272 272 271 270 273 272 272 274 273 274 275 274 276 279 279 280 280 281 282 282 282 283 283 284 285 289 291 292 293 293
271 271 271 270 272 273 274 275 275 274 274 273 273 273 274 274 272 266 263 261 261 261 261 261 261 262 263 264 265 266 267 268 268 269 269 269 270 270 270 271 271 271 271 271 271 271 272 271 271 274 274 273 272 272 272 276 277 278 277 279 280 281 282 283 283 284 285 286 286 287 287 287 288 289
271 272 273 272 273 274 273 273 272 271 270 271 271 272 272 271 263 261 260 260 260 260 260 261 262 263 264 265 266 267 267 268 268 268 268 269 270 270 271 271 271 271 272 272 272 272 272 271 270 272 273 274 273 274 275 274 276 277 278 278 277 280 282 283 283 283 283 285 286 286 286 287 287 288
273 273 273 274 272 270 269 268 267 266 266 269 271 270 269 263 260 260 259 260 260 260 262 262 262 263 264 265 266 267 267 266 266 266 266 267 267 268 268 268 268 270 271 271 271 271 271 271 271 272 272 273 275 274 275 276 276 278 279 278 278 280 281 282 282 284 284 284 285 286 286 287 287 287
270 271 270 268 270 269 269 268 268 268 267 264 262 261 261 260 260 260 259 260 261 262 262 262 262 263 265 266 265 265 265 265 265 267 267 267 267 267 267 267 266 267 268 270 271 271 271 271 271 271 270 271 274 276 278 278 277 277 278 279 279 276 280 282 282 283 283 283 284 285 285 286 286 287
267 266 267 265 261 260 259 259 258 258 258 260 260 259 259 259 260 262 265 266 262 262 262 262 263 263 263 263 263 264 264 265 265 267 267 266 266 267 267 266 265 266 266 267 268 270 271 271 271 271 272 272 272 275 278 278 278 278 278 280 280 280 281 281 281 282 284 284 284 284 285 286 286 288
262 261 257 256 257 256 256 256 254 254 256 257 258 258 257 258 258 258 257 258 259 260 261 261 261 261 262 262 263 264 264 264 265 267 266 267 267 267 267 265 265 264 264 265 266 267 269 270 271 271 270 271 272 273 274 274 278 280 279 280 281 280 281 282 282 282 283 283 283 283 284 285 286 287
259 257 256 255 254 254 254 253 254 255 255 255 256 257 260 259 257 258 259 259 260 260 261 261 261 261 262 262 263 263 264 265 266 267 268 267 267 266 265 264 264 265 265 264 265 266 267 268 269 269 271 272 273 275 275 275 277 280 281 281 281 280 282 282 282 283 283 283 283 282 283 284 286 288
259 255 255 255 253 255 254 253 254 255 255 256 256 256 257 257 258 259 258 259 260 260 260 261 261 262 262 262 263 263 264 265 265 266 267 267 266 265 265 264 264 264 264 264 264 265 266 266 266 266 267 268 269 273 280 281 279 280 281 281 282 282 282 283 283 283 284 284 285 283 283 284 285 287
256 256 255 253 253 253 253 255 255 255 255 255 255 255 255 256 257 258 258 259 260 260 260 260 261 261 262 263 263 264 264 265 265 266 266 266 265 265 265 264 264 264 264 264 264 265 266 265 265 264 263 264 265 266 270 280 284 282 280 280 282 282 283 283 284 284 284 284 285 284 282 282 284 286
257 254 254 253 253 253 253 254 253 254 254 254 254 255 255 255 256 258 259 260 259 259 260 261 262 262 263 263 264 264 265 265 265 265 265 265 265 264 264 264 264 264 264 264 265 265 265 265 265 264 263 263 263 264 268 275 280 285 283 281 281 282 283 283 283 283 284 284 284 284 284 284 284 286
256 255 253 253 252 252 252 253 253 253 254 254 254 255 255 256 256 257 258 258 258 259 260 260 261 262 263 263 263 264 265 266 266 265 265 265 264 264 264 263 263 263 263 264 265 265 265 265 264 264 264 263 263 264 266 272 277 281 285 283 281 282 283 283 282 282 283 285 284 285 285 284 285 286
255 254 253 252 252 251 252 252 252 253 253 252 253 253 254 254 255 256 257 257 258 259 260 261 261 262 262 263 264 264 264 265 265 265 264 264 264 264 263 263 263 264 264 263 264 264 265 264 264 265 265 264 263 265 267 268 271 277 282 286 284 283 283 283 282 283 283 284 285 286 286 288 288 288
254 253 252 251 251 251 251 252 251 252 251 252 252 252 253 254 255 255 255 257 258 260 261 261 261 262 262 263 264 265 265 265 265 265 264 264 264 264 264 264 263 263 263 263 263 263 264 264 265 265 265 266 267 269 269 270 271 272 274 277 281 284 284 284 283 284 284 285 286 285 285 286 285 287
252 252 251 251 250 250 251 251 251 251 251 251 252 255 255 254 254 254 255 258 260 260 260 260 260 261 262 263 264 265 265 265 265 265 264 264 264 264 264 264 263 263 262 262 262 262 263 264 267 270 268 268 268 269 267 266 266 269 273 278 283 285 286 286 286 285 284 286 285 285 284 285 285 287
252 251 250 249 249 250 250 250 250 250 250 251 251 252 253 254 254 259 259 259 258 258 259 260 261 262 263 263 264 265 265 265 264 264 264 264 263 264 264 263 263 263 262 262 262 263 265 267 267 267 267 267 266 264 263 265 266 269 273 277 282 286 287 287 286 286 287 286 285 284 284 284 285 285
251 250 249 249 249 249 249 249 249 249 250 250 251 252 252 253 253 254 255 256 257 258 259 260 261 262 263 264 265 266 265 265 264 264 264 264 263 263 263 263 263 263 263 263 264 264 265 266 266 266 266 266 266 266 264 266 268 270 273 276 279 284 286 287 287 287 287 286 286 286 287 286 285 284
250 249 248 248 248 248 248 248 248 248 249 250 251 252 252 252 253 254 255 256 257 258 259 260 261 263 264 265 265 266 266 265 264 264 263 263 263 263 263 263 263 263 263 263 263 264 264 265 265 266 264 264 266 265 265 267 268 271 273 277 280 282 283 286 287 287 287 286 287 286 286 287 287 288
249 248 248 248 248 248 247 247 247 248 249 250 251 251 253 253 254 255 255 256 257 258 259 261 262 263 264 265 265 265 265 267 265 264 264 263 263 264 264 264 263 263 263 263 263 263 264 264 265 265 265 265 266 266 267 269 269 272 274 276 278 282 284 285 285 285 286 286 288 288 287 287 286 286
Wind_Speed
6 5 5 5 4 3 3 3 4 5 4 5 5 5 5 4 4 7 6 6 3 0 4 0 2 3 3 4 1 3 4 7 12 10 10 10 9 16 22 24 25 25 27 28 28 28 28 29 29 29 29 30 30 29 31 31 30 31 31 32 34 34 34 34 35 35 35 34 35 34 36 36 34 34
5 4 4 3 4 2 3 4 3 3 4 5 5 5 4 4 5 3 7 9 3 6 3 4 3 2 0 3 6 4 6 11 15 10 10 10 10 19 23 24 25 26 28 28 27 27 28 29 30 30 30 30 31 32 31 31 31 32 32 33 34 34 33 34 35 35 35 36 36 37 36 35 34 32
5 5 4 3 3 2 3 3 3 3 3 4 4 4 4 4 3 4 4 10 2 5 1 0 1 2 5 6 7 8 8 9 14 12 10 10 17 25 19 24 25 25 25 26 27 28 29 30 31 31 31 31 31 31 31 32 32 33 33 33 33 33 34 33 33 35 35 35 36 36 37 37 35 34
5 5 4 4 4 3 3 3 3 3 3 3 4 3 3 2 2 1 5 9 17 3 9 4 6 6 6 6 9 10 9 9 15 12 13 13 18 13 11 18 22 24 26 27 28 29 30 30 30 30 30 31 32 32 32 32 32 32 32 32 32 33 33 33 33 33 35 36 36 36 38 38 36 35
5 5 5 4 4 4 4 3 3 3 3 2 3 3 3 3 2 2 4 10 16 12 4 10 4 2 5 10 7 13 9 11 11 11 11 12 10 11 11 11 17 22 25 27 28 30 30 30 30 29 30 31 32 32 32 32 32 32 31 32 32 32 32 33 33 33 34 35 36 36 37 37 38 36
6 5 5 4 4 4 4 3 4 4 4 4 4 4 3 4 4 2 4 8 10 21 6 8 10 5 3 12 4 11 15 11 11 15 11 10 10 10 10 10 11 20 24 28 30 31 31 31 31 31 31 31 32 32 32 31 32 31 32 32 32 32 33 33 33 33 34 35 36 37 37 38 37 38
6 6 5 5 5 3 4 5 5 4 4 4 5 4 3 3 3 3 4 6 11 14 17 5 14 10 5 8 13 10 11 14 11 13 13 9 8 8 10 11 10 18 25 29 31 31 31 30 30 31 31 31 31 32 32 32 33 32 32 32 31 32 32 33 33 34 34 35 37 37 37 38 38 39
7 7 6 5 5 5 5 5 5 4 4 6 5 5 4 3 4 4 4 7 8 12 15 15 6 14 10 8 8 10 11 12 13 10 12 11 11 9 10 11 12 14 24 28 29 29 29 30 30 31 32 33 32 32 33 33 32 32 31 32 32 32 32 32 33 33 34 35 37 37 37 37 39 41
8 7 7 6 6 5 5 5 5 5 7 6 5 5 4 4 4 4 5 7 8 11 15 18 13 9 13 10 10 9 12 12 11 12 13 12 12 13 11 10 11 17 23 25 28 29 29 30 32 33 32 33 33 33 33 33 32 32 32 32 32 32 33 33 33 33 33 34 36 36 37 37 37 39
7 7 6 6 6 6 7 6 6 7 8 6 5 5 4 4 5 6 7 8 9 10 15 15 19 15 11 17 12 5 14 13 13 15 13 11 10 11 13 10 8 8 9 9 11 17 22 24 29 31 31 32 32 34 33 33 33 33 32 32 33 33 33 33 33 33 34 35 37 36 36 37 38 40
7 6 6 6 7 8 8 7 7 7 7 6 6 6 6 6 7 7 7 8 10 11 12 14 14 17 15 11 16 11 6 13 11 14 18 20 9 8 13 17 10 8 10 15 21 20 23 28 25 28 32 32 32 33 32 32 34 33 32 32 31 31 31 32 33 33 33 33 36 38 39 39 38 39
6 6 7 7 8 8 8 8 7 7 6 5 6 6 6 7 7 8 8 9 10 11 12 12 13 11 13 13 11 12 12 14 13 8 11 21 22 18 14 12 11 9 12 14 12 13 17 19 24 28 28 30 31 31 30 31 32 33 31 30 31 32 33 33 33 33 32 33 35 37 39 39 39 38
7 7 7 8 8 8 11 14 12 10 9 6 6 7 8 8 8 8 8 8 9 11 11 13 11 13 15 14 15 14 12 14 17 14 11 15 17 18 18 19 13 9 11 12 12 13 10 11 12 11 12 13 18 22 27 24 30 30 31 34 35 35 34 33 33 33 34 34 35 37 39 39 40 37
8 8 8 8 13 15 15 14 14 15 15 14 10 7 6 7 7 7 8 8 8 8 8 8 10 13 14 16 15 17 16 11 17 18 16 20 19 17 21 19 14 7 8 14 13 11 8 9 12 11 12 13 13 11 11 12 17 25 33 34 34 34 33 34 34 34 33 33 32 34 38 38 37 37
9 8 9 8 11 12 12 11 15 14 15 14 14 16 16 13 9 7 8 9 9 10 13 13 13 14 17 18 18 16 19 18 15 19 17 16 20 18 17 21 21 9 6 10 14 11 10 9 14 14 14 12 10 11 13 24 31 33 33 34 34 34 34 33 34 33 33 33 33 33 34 38 40 35
8 8 8 8 7 8 9 7 7 10 12 13 13 14 15 16 18 18 13 11 10 10 11 13 13 15 16 20 11 16 13 16 20 17 18 21 16 20 21 17 21 17 9 12 15 14 14 8 13 16 14 13 11 14 22 30 33 35 35 34 34 33 33 33 34 34 34 33 33 33 35 36 39 38
8 8 9 8 7 6 12 9 7 6 6 10 13 14 15 17 18 18 21 22 17 12 13 14 14 12 12 16 20 15 18 16 20 23 17 15 19 17 17 24 16 20 12 11 14 18 20 9 12 15 16 11 11 15 22 32 35 35 35 35 34 34 33 33 33 34 35 34 33 33 34 35 36 37
10 10 9 8 8 7 7 6 6 5 5 5 6 7 8 9 13 17 21 23 24 20 15 14 17 19 15 17 20 20 17 21 16 17 19 21 16 21 19 20 23 20 12 12 15 17 20 13 12 16 17 12 11 14 20 30 33 34 35 34 33 33 33 33 34 35 36 35 34 33 33 33 33 36
10 10 9 8 6 5 4 5 6 6 6 6 7 8 9 9 9 11 11 9 10 13 15 16 18 18 16 17 15 17 14 17 17 16 19 20 19 18 18 16 20 16 14 10 11 17 16 9 11 16 15 14 13 13 19 29 33 35 35 35 34 35 35 35 35 35 35 34 33 33 33 34 31 32
9 8 6 4 4 3 4 8 13 11 7 6 7 8 9 8 8 10 14 20 20 16 14 14 15 15 17 22 22 21 19 16 14 16 15 14 15 15 17 19 17 17 11 8 12 15 18 19 10 14 10 12 14 13 13 20 31 33 34 35 35 35 35 35 34 34 33 32 32 32 32 32 29 26
8 6 4 3 3 4 5 9 12 12 11 7 7 8 8 9 11 11 9 15 20 23 25 26 28 30 31 30 29 29 33 26 20 14 14 17 13 12 16 16 15 17 13 7 11 15 20 18 10 13 9 11 14 14 14 12 20 31 33 34 35 35 34 34 34 34 34 33 33 32 31 31 28 26
5 6 10 7 5 6 7 10 12 12 10 7 7 8 11 12 10 10 11 12 11 18 24 27 28 26 24 26 31 32 30 29 23 13 15 15 12 17 16 19 18 21 18 11 9 13 18 15 11 13 13 14 12 13 13 13 16 26 28 34 35 35 34 34 34 34 34 33 32 31 32 32 28 20
5 6 7 11 10 9 8 12 12 13 11 6 8 10 10 9 11 12 12 11 11 11 11 11 8 10 16 15 14 16 27 28 24 17 17 13 13 16 17 17 17 18 15 6 11 15 14 10 13 11 11 13 11 10 12 12 13 12 12 14 18 27 31 31 30 32 32 32 31 31 33 32 28 15
7 6 6 7 11 11 11 12 12 12 13 9 7 7 8 8 9 9 9 12 13 11 8 8 9 12 12 13 14 14 15 16 16 17 16 15 13 14 15 16 17 18 17 8 10 12 13 10 16 10 11 15 15 7 8 10 9 9 10 11 12 17 23 26 24 30 31 31 34 34 33 34 25 12
7 6 6 6 7 9 10 10 11 12 13 14 9 7 6 7 12 15 10 9 12 8 10 11 11 11 11 10 10 12 12 13 13 14 16 15 15 14 14 15 16 18 19 14 18 13 16 12 16 13 12 11 14 15 11 11 12 11 12 11 14 13 13 13 12 16 22 32 36 36 33 29 27 19
7 7 7 5 7 9 9 10 11 13 14 16 9 8 15 20 20 14 9 7 7 8 8 9 10 10 10 10 10 10 10 10 12 12 13 13 14 15 16 16 17 18 21 15 23 17 16 17 14 15 15 11 15 13 16 12 10 11 12 12 13 14 13 13 11 12 11 10 11 14 18 27 27 30
8 8 6 6 9 9 9 10 12 13 14 12 9 14 16 18 20 16 5 8 8 8 9 9 10 11 10 10 10 10 10 10 11 12 13 15 16 16 17 19 18 21 24 22 18 18 16 18 17 18 19 15 16 18 16 16 12 7 11 11 11 12 11 12 12 13 13 14 14 20 24 27 30 31
7 5 6 5 9 8 10 10 10 11 11 8 12 14 16 18 15 6 8 6 8 9 10 10 10 11 9 9 9 10 10 12 13 14 14 16 17 17 17 19 21 20 24 24 21 19 17 18 19 18 18 19 20 20 19 16 13 11 14 11 11 12 11 11 10 12 13 12 13 13 12 12 13 15
7 8 10 11 11 9 6 6 7 7 7 10 11 13 15 14 5 6 6 8 7 9 9 10 11 11 10 11 13 14 14 15 13 12 13 12 14 14 17 17 17 17 17 16 16 13 15 17 21 19 17 18 20 21 17 18 15 13 13 13 12 11 10 11 12 14 14 14 14 13 13 13 13 13
12 12 12 9 3 1 1 2 2 3 5 10 12 13 13 5 6 6 7 7 8 9 10 11 12 12 12 13 14 15 14 12 12 12 13 13 12 10 12 14 14 13 14 15 17 19 19 19 19 17 17 20 19 21 19 17 16 13 13 14 16 14 13 13 12 12 12 13 13 13 13 13 14 13
5 6 6 4 3 1 2 4 5 6 7 6 6 4 4 5 6 7 6 7 8 9 10 11 12 12 12 13 13 12 11 12 11 12 13 14 14 12 13 14 16 14 12 11 14 16 18 18 19 19 19 20 18 18 15 15 17 12 14 14 13 13 12 9 11 14 15 15 14 14 14 14 14 16
5 5 5 6 4 3 2 1 1 2 2 4 4 4 5 6 8 9 13 12 9 9 9 11 11 12 12 12 12 12 11 12 12 12 12 12 15 13 13 12 15 15 15 11 10 13 15 17 17 17 18 19 20 18 15 17 17 13 14 14 14 13 14 15 13 12 12 12 12 13 14 13 14 14
6 5 4 4 3 1 0 1 2 2 2 3 3 5 6 6 6 5 4 6 8 8 8 10 11 13 12 13 12 12 13 13 12 11 12 12 11 14 10 15 15 15 16 16 13 13 12 14 16 19 19 19 21 21 21 21 16 14 15 13 15 15 14 12 12 14 12 13 14 15 16 16 15 16
6 5 5 4 4 2 3 2 3 3 2 3 5 5 6 6 5 5 5 6 8 8 9 10 11 12 13 13 13 13 14 15 13 13 15 15 13 14 15 15 15 14 15 17 15 14 14 13 13 16 18 20 18 22 21 21 19 12 14 13 14 15 14 12 13 15 13 13 14 15 16 16 16 15
7 5 6 4 3 4 3 3 4 2 2 4 4 6 6 5 5 7 6 7 8 9 9 10 10 11 12 13 13 14 15 16 16 14 12 12 14 14 15 16 17 16 16 16 16 14 14 15 14 17 16 15 17 17 21 22 18 17 15 16 15 16 15 13 13 13 14 13 13 15 17 17 17 15
6 6 6 4 5 4 4 4 3 3 3 4 5 5 6 7 5 6 7 7 7 9 9 10 11 11 11 12 13 14 15 16 16 15 15 14 14 15 15 15 16 17 15 15 16 14 13 15 13 17 18 18 16 17 16 18 22 16 15 15 15 15 15 14 13 13 14 14 14 14 16 18 18 17
7 5 5 5 4 5 5 4 3 4 4 4 5 5 5 6 7 7 9 10 9 9 9 10 11 11 11 12 14 14 14 15 15 15 15 15 14 15 16 16 16 16 17 15 14 14 13 14 12 13 16 17 17 19 18 14 20 23 17 17 16 14 15 13 15 15 15 15 15 15 17 16 19 18
7 6 6 5 5 5 4 3 3 3 4 4 4 5 5 6 7 8 9 8 9 8 10 10 11 11 12 12 13 14 15 14 14 15 15 15 16 16 15 17 17 16 16 16 14 14 12 13 13 14 14 17 18 19 19 16 14 14 24 21 16 16 13 13 14 15 15 13 15 16 14 16 21 19
7 8 7 6 6 5 4 3 3 4 4 4 4 4 5 6 7 7 7 8 9 9 10 10 10 11 12 13 13 14 15 15 15 15 16 15 15 16 17 16 17 17 16 17 15 13 12 13 13 13 14 16 18 17 16 18 20 16 15 23 18 16 14 13 14 14 14 13 13 13 14 17 22 25
6 6 6 5 5 5 3 3 4 4 5 5 4 4 5 7 7 7 8 9 9 10 9 10 12 13 12 12 13 14 14 15 15 15 16 17 16 16 16 16 17 17 18 17 17 15 13 14 13 13 14 16 17 17 17 19 20 20 21 27 34 25 17 12 14 13 13 13 11 11 12 12 14 14
5 6 6 6 5 4 4 4 4 4 5 4 5 6 6 6 8 8 8 9 9 9 10 10 11 12 12 13 14 14 15 15 14 15 16 17 18 17 19 19 17 15 17 19 17 18 15 14 17 27 26 19 19 17 18 19 20 18 18 18 21 29 31 24 17 13 14 12 9 11 14 14 15 14
6 6 5 5 5 4 4 4 4 4 4 4 4 5 6 7 8 14 12 13 11 10 10 10 11 11 12 12 13 14 14 15 15 17 17 17 18 18 17 15 16 17 16 18 18 19 17 16 18 17 15 15 15 15 19 19 19 18 16 16 14 16 24 28 30 26 19 14 11 12 13 13 12 15
5 4 5 5 4 4 4 4 4 4 4 4 5 5 6 7 8 9 8 9 9 9 10 10 11 11 12 12 13 13 14 15 15 17 17 17 17 18 18 16 16 17 17 18 18 18 18 17 15 15 15 14 15 15 19 18 18 17 16 15 15 13 12 20 27 29 28 29 25 20 15 13 9 13
4 5 4 4 4 4 4 4 4 3 4 5 5 6 6 7 8 9 8 9 9 10 10 11 11 12 13 13 13 13 12 13 15 17 18 17 17 17 18 18 18 17 17 17 18 17 16 16 15 14 14 15 14 15 18 19 19 17 16 15 14 14 15 10 10 17 22 26 30 30 33 31 25 25
5 5 5 4 4 4 4 4 3 3 4 5 6 6 7 6 7 8 9 9 10 11 11 11 12 12 13 13 13 13 13 16 16 16 16 17 17 17 17 17 18 18 17 17 18 20 17 17 16 13 14 16 15 16 19 19 19 17 17 16 17 14 11 8 9 9 10 11 20 29 32 33 34 35
Wind_Direction
158 160 166 177 185 200 212 227 225 235 241 233 236 231 231 241 285 321 294 321 267 7 121 197 300 123 119 98 52 354 316 307 306 298 295 292 293 297 299 301 302 303 302 302 300 298 296 294 293 292 292 290 289 289 288 288 287 286 285 283 283 281 280 277 276 274 273 273 275 275 274 271 272 275
156 156 155 166 182 198 208 217 226 228 229 231 233 224 229 201 221 268 296 298 148 279 228 196 210 170 312 354 328 334 301 300 300 291 288 290 283 293 297 299 300 300 300 299 297 296 295 293 292 291 290 290 290 288 288 288 287 285 285 283 282 282 280 277 273 272 271 270 270 272 273 272 269 269
152 155 166 165 186 191 208 215 218 223 211 230 213 230 216 221 217 250 267 291 257 130 353 55 98 52 322 318 314 306 293 293 297 291 284 283 289 295 294 295 296 296 296 296 295 294 292 290 289 290 290 290 288 287 287 286 285 284 283 282 281 280 279 277 274 271 270 270 269 269 270 272 271 267
155 158 168 175 177 182 179 200 212 211 228 215 222 216 210 214 200 200 266 261 270 223 286 249 268 284 300 304 298 287 290 286 283 283 283 281 287 288 284 286 290 293 292 290 289 290 290 288 289 289 289 289 288 288 286 285 284 283 282 280 279 278 277 276 274 272 269 268 268 267 267 268 269 269
157 163 168 170 174 168 189 204 204 217 214 216 221 220 210 239 228 236 261 272 283 284 203 278 227 257 312 291 281 287 280 285 284 267 276 280 278 279 281 283 282 284 287 287 288 290 291 290 290 290 289 289 288 287 286 284 283 281 281 280 280 279 278 276 275 272 269 266 265 265 264 265 265 265
165 163 169 178 169 170 188 197 207 212 217 214 226 229 222 236 253 227 265 270 280 289 278 284 289 263 256 285 258 287 298 283 282 289 280 272 270 275 277 278 278 276 282 286 288 291 292 292 291 291 291 289 288 286 285 284 282 282 283 281 280 279 278 277 275 273 271 268 266 263 262 263 263 264
158 164 173 181 165 170 190 208 212 207 207 214 223 233 215 237 243 248 249 274 281 285 291 295 296 295 281 276 295 286 282 289 287 287 286 273 268 268 270 274 274 276 280 286 289 292 293 291 290 290 290 288 285 284 282 283 283 282 281 279 279 279 278 276 274 272 269 267 264 263 260 261 261 261
165 169 174 180 174 180 197 211 206 206 205 221 230 225 229 219 245 247 246 258 268 288 292 294 281 300 299 285 275 288 284 286 293 281 280 283 279 266 265 260 271 273 279 284 289 292 292 291 288 286 286 285 282 281 280 280 280 280 280 280 280 279 278 276 275 272 269 266 264 265 263 258 260 259
164 170 177 176 170 179 197 210 207 207 212 222 211 223 215 224 235 236 246 254 258 273 280 289 287 288 291 283 283 292 293 295 287 284 282 286 284 281 261 260 268 272 279 283 287 289 287 286 286 283 281 281 281 278 278 279 278 278 279 279 279 280 279 278 275 274 271 267 265 261 261 264 261 259
166 173 175 176 175 185 200 211 212 211 216 214 212 208 216 223 230 239 243 249 252 254 269 279 293 290 287 301 283 291 301 298 303 300 287 274 273 280 286 271 264 267 271 272 273 277 278 278 278 280 279 280 279 279 277 277 276 276 277 278 278 276 277 275 273 272 271 270 265 261 259 258 259 260
166 172 176 181 189 197 206 210 213 216 215 213 214 211 220 226 235 243 247 248 254 255 264 271 271 285 289 280 292 300 263 282 289 299 306 299 278 267 285 295 293 278 267 263 269 276 283 284 284 280 280 280 279 281 279 276 276 275 275 275 276 283 288 286 284 282 278 273 266 261 258 256 257 260
169 178 188 195 200 205 208 209 213 209 211 208 214 222 220 227 235 244 249 250 252 258 260 263 280 276 284 293 269 281 298 296 286 273 289 296 304 306 289 267 279 286 279 284 279 263 268 272 273 274 275 274 277 278 280 277 276 276 274 276 280 285 286 283 280 276 273 273 270 262 258 253 254 257
176 186 194 201 206 206 211 217 218 215 213 208 218 225 220 227 235 241 248 249 251 257 262 270 272 278 282 281 288 293 290 288 287 299 291 285 291 297 297 296 286 273 274 268 269 278 260 264 264 263 265 262 261 262 262 267 271 274 277 279 278 277 277 275 275 273 274 274 273 263 256 253 250 251
181 189 193 202 212 216 218 222 226 229 231 229 225 218 211 220 223 232 244 250 251 253 255 257 276 280 279 285 287 291 292 289 296 295 299 296 297 298 293 287 284 287 273 285 274 263 260 266 275 265 262 263 253 253 252 255 266 270 271 272 274 275 274 273 272 272 272 272 270 268 259 252 248 246
182 188 195 200 212 216 222 227 232 238 240 244 248 252 256 255 251 246 253 254 258 268 270 274 273 270 279 283 290 287 293 298 299 300 298 293 295 293 290 296 297 272 271 277 281 273 264 262 276 274 265 259 250 252 256 265 270 271 271 272 272 273 273 272 271 270 271 270 268 264 263 255 248 244
179 184 193 203 202 212 217 216 227 236 241 246 250 254 258 261 262 262 261 267 266 264 272 277 273 279 279 287 288 294 300 299 296 290 290 289 283 286 287 280 285 293 293 277 283 280 268 238 257 267 262 256 250 250 261 266 272 272 273 273 272 272 272 271 270 271 271 270 266 264 261 258 249 243
179 186 196 202 206 201 217 221 219 209 226 246 255 261 263 266 266 268 268 269 270 276 274 271 275 275 291 291 288 286 290 289 290 290 282 281 283 278 276 277 280 283 282 277 275 279 278 261 258 262 265 256 253 257 261 266 270 271 271 272 272 271 271 269 269 269 270 269 266 262 260 259 254 243
186 194 196 195 207 204 205 209 206 212 216 218 235 244 247 246 256 263 266 269 271 275 277 282 281 280 273 272 282 283 285 285 282 285 284 287 282 281 272 276 280 281 286 272 282 277 276 268 258 265 269 264 250 254 259 263 268 270 270 272 271 271 270 269 269 269 269 266 263 262 261 260 256 245
192 197 197 204 204 205 211 208 220 217 225 227 235 237 238 244 245 256 261 261 265 266 264 264 266 272 275 274 280 286 286 283 278 273 275 281 284 286 289 287 281 281 279 271 261 272 277 261 243 260 270 270 259 255 258 263 269 270 271 271 272 271 271 270 268 267 266 263 261 261 261 259 256 247
192 195 206 196 209 218 224 236 241 243 241 239 242 252 254 257 261 263 265 268 270 269 268 271 275 279 282 284 285 286 287 290 293 296 296 296 295 296 293 287 291 282 280 262 264 266 273 273 263 270 259 260 264 259 252 256 265 268 270 271 271 270 269 267 266 265 265 265 265 265 265 263 256 249
197 200 186 194 202 224 225 240 248 253 258 264 264 262 268 268 265 260 259 274 280 280 281 281 283 284 285 286 289 294 297 295 298 302 296 287 294 289 285 281 283 279 284 254 259 268 271 273 275 277 261 258 261 262 260 256 260 266 270 269 269 269 268 266 265 264 263 263 262 262 262 261 257 252
183 203 207 209 215 230 241 249 257 264 267 267 266 274 270 266 265 277 286 288 280 282 284 282 281 282 287 294 296 295 295 293 294 286 280 286 295 285 284 286 288 290 284 275 255 256 258 273 267 267 268 264 249 255 259 257 259 264 266 265 265 265 265 264 263 262 261 260 258 257 258 257 256 255
188 202 213 221 224 230 243 253 260 266 269 274 271 266 274 280 285 286 291 289 286 272 263 272 292 295 293 294 292 288 290 290 289 283 277 281 274 276 279 280 285 285 275 263 233 255 265 266 262 261 279 272 259 237 254 248 252 253 254 255 256 256 258 260 262 263 262 259 256 254 253 255 256 246
190 193 204 217 225 234 247 261 267 270 271 268 271 281 283 282 281 296 288 271 268 285 306 301 293 288 288 288 285 281 284 286 283 281 275 271 268 268 274 281 282 282 286 324 322 299 290 278 276 260 252 274 283 258 223 247 243 251 258 263 267 267 269 272 273 269 265 261 258 255 253 254 245 239
187 191 190 190 220 238 249 256 263 270 272 277 285 287 283 284 287 289 279 289 317 317 303 295 292 287 284 276 272 274 278 281 279 275 274 269 269 271 274 278 279 275 277 286 295 281 286 293 284 288 267 258 267 278 263 256 254 253 253 249 259 257 254 254 255 260 258 256 252 251 251 251 246 244
185 180 176 191 215 229 243 253 261 268 278 288 290 289 288 290 294 295 306 324 312 302 295 288 284 283 282 280 279 277 275 272 272 278 280 278 277 275 274 276 279 282 282 287 288 283 283 281 275 280 274 265 269 259 275 267 248 251 251 247 247 254 251 251 249 254 257 260 262 259 257 257 256 254
176 165 175 190 211 229 240 250 262 277 286 293 290 291 293 296 300 307 338 316 303 290 286 284 282 281 280 283 285 281 279 283 286 287 285 284 282 276 274 271 270 276 282 287 284 280 275 276 276 273 278 277 275 272 263 268 266 238 249 242 243 243 243 242 246 249 251 251 252 246 246 246 247 246
151 140 150 184 209 221 237 258 278 282 287 286 290 296 297 302 311 332 313 299 289 288 287 284 279 280 278 278 280 284 289 292 293 289 283 284 280 278 277 277 273 271 277 281 281 276 270 270 274 266 263 270 271 268 269 261 258 257 259 253 249 246 242 238 238 247 247 244 245 242 241 241 239 246
143 155 184 200 214 226 257 280 291 297 295 293 294 298 303 312 339 313 293 289 290 288 286 285 285 284 287 289 291 293 296 294 289 281 280 269 264 261 262 263 261 265 271 278 274 268 266 268 271 276 275 268 265 264 261 264 263 254 250 262 258 241 235 234 239 245 248 245 243 237 235 237 241 238
165 187 200 198 174 106 314 317 286 273 273 288 299 306 311 318 298 280 282 284 287 284 288 288 290 292 294 296 296 296 293 289 288 291 288 290 279 275 276 280 272 257 260 266 275 278 277 273 271 269 267 264 259 263 261 262 254 246 245 249 255 265 249 245 246 246 247 247 241 240 239 238 243 243
158 159 144 118 148 143 245 265 274 285 302 313 312 300 285 272 270 269 256 264 276 285 288 290 288 290 293 294 296 294 294 289 285 286 287 287 286 288 286 282 282 284 265 251 266 275 278 274 274 275 275 276 274 265 263 252 254 243 246 243 246 247 253 236 232 238 240 242 244 244 245 244 245 240
130 118 94 81 63 67 38 10 341 277 260 264 272 277 271 269 265 270 284 290 287 280 277 282 287 289 294 296 296 295 290 287 286 286 282 283 288 288 292 286 286 287 288 277 270 270 270 273 274 274 269 272 274 272 261 253 251 248 245 242 241 245 247 247 246 243 235 235 239 240 239 236 239 239
95 98 98 102 88 81 155 250 255 256 257 257 249 263 268 261 258 268 271 271 275 278 286 287 291 293 297 295 294 292 292 289 289 287 285 279 278 290 282 281 285 291 295 295 294 287 278 274 272 274 275 272 271 273 276 273 255 242 243 240 240 242 241 235 239 242 236 237 241 247 250 244 240 241
130 137 148 151 148 167 191 230 253 263 272 290 292 275 275 277 279 280 278 275 278 284 283 285 291 293 296 294 295 294 294 295 292 288 290 292 294 293 294 291 288 288 288 291 294 294 294 284 280 276 271 269 263 259 258 261 262 250 243 238 236 241 240 237 237 238 234 231 239 246 249 253 245 238
146 150 152 172 176 199 194 216 232 245 263 274 278 282 284 277 283 289 281 280 280 281 286 286 285 286 288 289 293 296 296 296 295 295 290 289 293 292 294 293 293 292 291 291 293 295 293 295 295 292 287 284 285 275 254 247 250 249 248 244 238 240 243 234 235 237 233 234 232 243 252 256 256 245
150 149 159 165 198 193 198 224 220 228 244 257 261 271 285 290 284 282 278 280 282 284 285 288 287 284 284 287 291 293 295 294 294 295 299 300 298 296 292 288 289 290 288 287 291 293 292 291 294 292 293 295 292 289 288 259 242 239 242 243 237 239 241 238 236 237 234 236 229 234 244 250 256 252
154 157 167 184 194 194 206 206 204 230 236 249 255 256 267 281 288 282 284 290 283 279 278 284 284 286 286 290 293 292 293 294 296 299 299 301 298 296 296 293 290 290 290 287 286 289 289 287 286 285 288 286 283 283 282 291 264 240 232 239 240 237 236 236 236 236 233 234 236 230 239 245 254 253
161 162 173 196 200 204 205 207 218 244 244 249 252 265 267 269 279 282 286 284 283 285 283 279 277 286 290 292 294 295 297 293 292 296 300 303 303 300 296 296 297 294 292 290 288 286 283 282 280 279 275 273 277 278 286 287 281 255 225 230 239 236 230 229 231 233 236 228 230 232 233 243 247 249
148 161 180 190 203 186 202 213 215 241 252 251 257 263 273 279 278 281 282 281 284 284 283 282 285 290 291 293 292 294 296 299 301 302 303 303 300 300 300 298 296 295 294 293 290 286 284 279 278 275 270 268 267 270 279 284 279 292 291 266 246 238 232 222 232 231 234 232 231 233 233 241 254 253
158 156 176 183 195 185 199 217 228 235 246 252 257 261 263 275 281 282 282 281 281 277 280 289 293 294 291 291 293 294 291 292 297 303 304 303 301 297 296 296 295 298 296 293 294 291 285 280 278 275 272 268 268 271 275 278 282 287 279 276 269 260 248 234 234 234 237 230 232 239 238 236 244 247
152 170 198 189 178 187 204 222 233 238 248 256 262 272 276 272 277 274 270 272 275 291 294 289 288 288 290 293 294 295 297 299 302 304 304 302 300 299 296 297 295 296 294 294 293 291 288 284 280 282 279 276 275 277 273 268 266 261 263 262 252 244 238 230 237 235 240 235 227 241 250 248 258 262
163 180 185 181 182 208 205 227 236 239 257 256 267 271 276 278 265 283 288 291 289 282 283 288 292 294 292 292 293 296 296 301 306 307 306 304 304 302 297 298 298 300 296 294 295 292 291 288 285 281 273 270 265 262 260 261 263 264 265 266 265 247 234 228 228 232 235 239 231 241 247 256 251 260
169 180 185 193 191 203 214 229 239 243 262 267 271 271 274 277 281 286 282 284 287 289 287 292 293 292 292 291 293 294 297 302 308 307 306 305 304 302 304 302 298 297 295 292 290 290 292 292 290 285 279 268 260 255 262 262 264 268 270 269 265 265 250 230 230 230 233 236 232 231 234 241 253 253
178 181 195 186 193 215 221 227 239 243 255 265 269 272 267 272 280 284 286 288 291 292 293 292 293 293 293 295 293 292 294 303 307 308 307 305 303 302 301 301 300 298 297 295 296 295 295 293 289 286 279 269 263 262 260 262 263 262 263 263 262 258 255 248 234 234 234 236 237 236 236 237 238 248
180 186 183 191 202 221 227 232 240 253 258 264 267 266 270 274 276 284 285 286 288 290 294 293 294 295 296 298 299 297 302 309 308 305 305 303 303 302 300 300 301 302 299 300 300 300 300 296 293 281 268 265 264 259 261 259 263 267 266 265 265 259 261 257 254 248 244 250 235 231 235 235 236 238